Regional Weather Roundup
Issued by NWS

Home | Current Version | Previous Version | Text Only | Print | Product List | Glossary Off
Versions: 1 2 3 4 5 6 7 8 9 10 11 12 13 14 15 16 17 18 19 20 21 22 23 24 25 26 27 28 29 30 31 32 33 34 35 36 37 38 39 40 41 42 43 44 45 46 47 48 49 50

000
ASUS45 KTFX 190419
RWRMT
MONTANA HOURLY WEATHER ROUNDUP
NATIONAL WEATHER SERVICE GREAT FALLS MT
1019 PM MDT FRI APR 18 2014

NOTE: "FAIR" INDICATES FEW OR NO CLOUDS BELOW 12000 FEET WITH NO
SIGNIFICANT WEATHER AND/OR OBSTRUCTIONS TO VISIBILITY.

* THESE STATIONS ARE NOT UNDER NWS QUALITY CONTROL. THEY DO NOT
   REPORT WEATHER SUCH AS PRECIPITATION OR FOG.

MTZ001>007-043-190500-
WEST OF THE DIVIDE
CITY           SKY/WX    TMP DP  RH WIND       PRES   REMARKS
KALISPELL      CLOUDY    43  27  53 S7        29.98R
MISSOULA       PTCLDY    37  21  52 N7        30.02R WCI  32
BUTTE          MOCLDY    34  12  40 SE7       29.98R WCI  28
MULLAN PASS    PTCLDY    27  21  78 NW5       29.96R WCI  21
* ESSEX        N/A       33  32  96 SW1        N/A
* LINCOLN      N/A       38  16  41 W7G21      N/A   WCI  33
* LOOKOUT PASS N/A       31  25  78 N/A        N/A
* POLSON       N/A       38  21  50 S3G12      N/A
* SEELEY LAKE  N/A       33  23  67 NE2        N/A
* THOMP F APT  CLEAR     41  13  32 N7G14      N/A
* YAAK HILL    N/A       43  30  60 NE1        N/A
$$

MTZ008-052>055-190500-
SOUTHWEST MONTANA
CITY           SKY/WX    TMP DP  RH WIND       PRES   REMARKS
BOZEMAN        CLOUDY    41  10  28 NW6       29.97R
DILLON         CLOUDY    39   9  29 SW10      29.98R WCI  32
W YELLOWSTONE  N/A       32  30  92 SW2        N/A
* THREE FORKS  MOCLDY    45  12  26 SW7        N/A
* BOULDER HILL N/A       36   7  30 SE2G11     N/A
* MONIDA PASS  N/A       36  14  40 SW4        N/A
* RAYNOLDS PAS N/A       35 -12  12 N12G17     N/A   WCI  27
* WHITEHALL    N/A       43   9  25 SW5G14     N/A
* WISE RIVER   N/A       34  12  40 W8         N/A   WCI  27
$$

MTZ009>010-012-014-046-048-049-054-190500-
EAST SLOPES AND CENTRAL MONTANA
CITY           SKY/WX    TMP DP  RH WIND       PRES   REMARKS
CUT BANK       PTCLDY    37  27  67 W32G40    29.78R WCI  24
GREAT FALLS    CLEAR     39  18  43 SW16      29.84R WCI  30
HELENA         PTCLDY    46  12  25 W15G36    29.91S
MALMSTROM AFB  CLEAR     45  16  31 SW20G28   29.81R
* CONRAD       PTCLDY    41  23  49 SW21G30    N/A
* DEARBORN     N/A       46  14  27 S15G22     N/A
* EAST GLACIER N/A       33  26  75 W34G42     N/A   WCI  18
* MONARCH      N/A       36   6  28 SW19G26    N/A   WCI  25
* PENDROY      N/A       39  18  43 W26G32     N/A   WCI  28
* ROGERS PASS  N/A       34  14  44 SE12G28    N/A   WCI  25
* SAINT MARY   N/A       35  27  73 S10G29     N/A   WCI  27
* SWEET GRASS  N/A       35  35 100 SW18       N/A   WCI  24
* WHITE SULPH  N/A       36  10  34 NW7G22     N/A   WCI  30
$$

MTZ011-013-016-021-035-040-045-047-050-051-190500-
NORTH CENTRAL MONTANA
CITY           SKY/WX    TMP DP  RH WIND       PRES   REMARKS
HAVRE          CLOUDY    46  25  44 W26G31    29.75R
LEWISTOWN      CLEAR     37  18  46 SW20      29.84R WCI  27
* CHINOOK      CLOUDY    45  30  56 SW21G32   29.76R
* FORT BENTON  PTCLDY    43  19  38 SW12      29.84R
* CHESTER      N/A       42  25  51 W16G28     N/A
* DENTON       N/A       39  15  37 SW14G19    N/A   WCI  31
* GEYSER       N/A       36  12  37 W12        N/A   WCI  28
* JUDITH GAP   N/A       38  10  31 W17G23     N/A   WCI  29
* LOMA         N/A       45  19  35 SW16G27    N/A
$$

MTZ017>020-022>027-061-062-190500-
NORTHEAST MONTANA
CITY           SKY/WX    TMP DP  RH WIND       PRES   REMARKS
GLASGOW        PTCLDY    37  36  96 S9        29.74R WCI  30
GLENDIVE       CLOUDY    41  37  86 NW12      29.78F
JORDAN         PTCLDY    39  34  82 W7        29.79R WCI  34
SIDNEY         MOCLDY    43  39  86 W26G37    29.78R
WOLF POINT     CLOUDY    43  37  79 SW9       29.74S
* BEAVER HILL  N/A       43  36  76 W29G37     N/A
* CIRCLE       N/A       41  38  89 N/A        N/A
* LINDSAY DVD  N/A       40  36  86 W7G12      N/A   WCI  35
* NAVAJO       N/A       39  36  89 W22G29     N/A   WCI  29
* SACO         N/A       42  27  55 SW16       N/A
$$

MTZ028>042-056>058-190500-
SOUTHCENTRAL AND SOUTHEAST MONTANA
CITY           SKY/WX    TMP DP  RH WIND       PRES   REMARKS
BAKER          CLOUDY    45  37  74 NW32G47   29.82R
BILLINGS       PTCLDY    43  18  37 W12       29.87R
LIVINGSTON     MOCLDY    43  10  26 W18       29.92S
MILES CITY     CLOUDY    45 N/A N/A NW9       29.82R
* LAUREL APT   PTCLDY    46  12  25 SW6        N/A
* ROUNDUP APT  CLEAR     45  12  26 W14G25     N/A
* HYSHAM       N/A       47  15  28 W20G31     N/A
* LAME DEER    N/A       39  33  79 NW11G16    N/A   WCI  32
* REED POINT   N/A       45  17  32 W9         N/A
* ROSCOE HILL  N/A       38  19  46 W4G16      N/A
$$

REGIONAL REPORTS...DAKOTAS
CITY           SKY/WX    TMP DP  RH WIND       PRES   REMARKS
WILLISTON      FOG       39  39 100 W10       29.72R VSB 2 1/2 WCI  32
DICKINSON      MOCLDY    43  37  79 W6        29.68R
CROSBY         CLEAR     39  39 100 SW13      29.67S WCI  31
TIOGA          FOG       37  37 100 SE9       29.71R WCI  30
WATFORD CITY   FOG       37  37 100 SW7       29.70R VSB 1    WCI  32
BISMARCK       CLOUDY    50  39  66 N8        29.60R
GRAND FORKS    CLOUDY    43  27  53 SE28G35   29.89F
FARGO          CLOUDY    45  30  56 SE31G45   29.88F
BUFFALO SD     MOCLDY    48  39  71 NW21      29.68R
RAPID CITY     CLOUDY    57  39  51 N31G38    29.68R
$$

REGIONAL REPORTS...WYOMING/IDAHO/WASHINGTON
CITY           SKY/WX    TMP DP  RH WIND       PRES   REMARKS
GILLETTE       MOCLDY    39  36  89 NW3       29.83R
SHERIDAN       PTCLDY    43  28  56 CALM      29.92R
CODY           PTCLDY    39  28  65 N9        29.90R WCI  33
YELLOWSTONE LA PTCLDY    30  21  69 CALM      30.03R
SALMON         PTCLDY    39  16  39 S5        30.00R WCI  35
MULLAN PASS    PTCLDY    27  21  78 NW5       29.96S WCI  21
SAND POINT     CLOUDY    41  36  82 CALM      29.97R
SPOKANE        PTCLDY    45  21  38 S8        29.96S
$$

REGIONAL REPORTS...ALBERTA
CITY           SKY/WX    TMP DP  RH WIND       PRES   REMARKS
CALGARY        PTCLDY    30  28  92 N3        29.80R
LETHBRIDGE     LGT SNOW  32  32 100 W15       29.82R VSB 2 1/2 WCI  22
MEDICINE HAT   LGT RAIN  37  36  96 W23G30    29.71R WCI  26
EDMONTON       CLOUDY    32  28  85 N3        29.82R
WATERTON GATE  N/A       37  25  62 SW22G35    N/A   WCI  26
CARDSTON       N/A       39  27  62 W16G22     N/A   WCI  30
MILK RIVER     N/A       34  32  92 NW14       N/A   WCI  24
$$

REGIONAL REPORTS...SASKATCHEWAN
CITY           SKY/WX    TMP DP  RH WIND       PRES   REMARKS
SWIFT CURRENT  CLOUDY    43  34  71 W14G21    29.60R
REGINA         CLOUDY    37  36  96 SE12      29.64F WCI  29
VAL MARIE      N/A       41  27  58 W15        N/A
ASSINIBOIA     N/A       45  32  60 W20G26     N/A
CORONACH       N/A       41  36  82 SW21G29    N/A

$$




USA.gov is the U.S. government's official web portal to all federal, state and local government web resources and services.